Regional Weather Roundup
Issued by NWS

Home | Current Version | Previous Version | Graphics & Text | Print | Product List | Glossary On
Versions: 1 2 3 4 5 6 7 8 9 10 11 12 13 14 15 16 17 18 19 20 21 22 23 24 25 26 27
000
ASUS45 KBOI 281910
RWRID

IDAHO REGIONAL WEATHER ROUNDUP
NATIONAL WEATHER SERVICE BOISE ID
100 PM MDT WED SEP 28 2016

NOTE: "FAIR" INDICATES FEW OR NO CLOUDS BELOW 12000 FEET
WITH NO SIGNIFICANT WEATHER AND/OR OBSTRUCTIONS TO VISIBILITY

IDZ012-014-282000-
SOUTHWEST IDAHO


CITY           SKY/WX    TMP DP  RH WIND       PRES   REMARKS
BOISE          SUNNY     83  42  23 S10       30.01F
CALDWELL       SUNNY     82  49  31 E15G21    29.99F
MOUNTAIN HOME  SUNNY     80  46  29 SE20      30.02F
$$

IDZ016-017-282000-
SOUTHCENTRAL IDAHO


CITY           SKY/WX    TMP DP  RH WIND       PRES   REMARKS
BURLEY         SUNNY     73  48  41 E6        30.13F
JEROME         SUNNY     78  43  28 E10       30.12F
TWIN FALLS     SUNNY     72  51  47 NE8       30.12F
$$

IDZ019>023-282000-
SOUTHEAST IDAHO


CITY           SKY/WX    TMP DP  RH WIND       PRES   REMARKS
IDAHO FALLS    SUNNY     73  45  36 N5        30.20F
POCATELLO      SUNNY     75  47  36 VRB5      30.18F
REXBURG        SUNNY     72  43  35 CALM      30.21F
$$

IDZ006-010-011-018-031-032-282000-
CENTRAL IDAHO MOUNTAINS


CITY           SKY/WX    TMP DP  RH WIND       PRES   REMARKS
MCCALL         SUNNY     72  40  31 S3        30.13F
HAILEY         SUNNY     73  46  38 SE12      30.21F
STANLEY          N/A     68  38  33 N5        30.25F
SALMON         SUNNY     66  43  42 CALM      30.15F
CHALLIS        SUNNY     70  37  29 NE3       30.18F
$$

IDZ002-004-006-007-026-282000-
NORTHERN IDAHO


CITY           SKY/WX    TMP DP  RH WIND       PRES   REMARKS
LEWISTON       SUNNY     74  48  39 CALM      29.96F
LOWELL           N/A     71  52  50 N3        29.97F
COEUR D`ALENE  SUNNY     70  47  43 N15       30.03F
MULLAN PASS    SUNNY     60  43  53 VRB5      30.18F
$$




USA.gov is the U.S. government's official web portal to all federal, state and local government web resources and services.